Temperature
-2 -2 -2 -2 -2 -2 -2 -2 -2 -2 -2 -2 -2 -2 -1 -1 -1 -1 -1 -1 -1 -1 -0 -0 -0 -0 0 0 1 1 1 1 2 2 2 2 2 3 3 3 4 4 4
-2 -2 -2 -2 -3 -3 -3 -2 -2 -3 -2 -2 -2 -2 -2 -2 -2 -2 -2 -2 -1 -1 -1 -1 -1 -1 -0 -0 -0 0 0 1 1 1 1 2 2 2 2 3 3 3 4
-3 -3 -3 -3 -3 -3 -3 -3 -3 -3 -3 -3 -3 -3 -3 -3 -2 -2 -2 -2 -2 -2 -2 -1 -1 -1 -1 -1 -1 -0 -0 0 0 0 1 1 1 1 1 2 2 2 3
-4 -4 -4 -4 -4 -4 -4 -4 -3 -3 -3 -3 -3 -3 -3 -3 -3 -3 -3 -3 -3 -2 -2 -2 -2 -2 -2 -2 -1 -1 -1 -1 -1 -0 -0 0 0 0 1 1 1 2 2
-4 -4 -4 -4 -4 -4 -4 -4 -4 -4 -4 -4 -4 -4 -4 -4 -4 -4 -4 -3 -3 -3 -3 -2 -2 -2 -2 -2 -2 -2 -2 -1 -1 -1 -1 -1 -0 -0 -0 -0 0 1 1
-5 -5 -5 -5 -5 -5 -5 -5 -5 -5 -4 -4 -4 -4 -4 -4 -4 -4 -4 -4 -4 -4 -3 -3 -3 -3 -3 -2 -2 -2 -2 -2 -2 -2 -2 -1 -1 -1 -1 -1 -0 0 0
-5 -5 -5 -5 -5 -5 -5 -5 -5 -5 -5 -5 -5 -5 -5 -5 -5 -5 -5 -5 -4 -4 -4 -4 -4 -3 -3 -3 -3 -3 -3 -3 -2 -2 -2 -2 -2 -1 -1 -1 -1 -0 0
-6 -6 -6 -6 -6 -6 -6 -6 -6 -6 -6 -6 -6 -5 -5 -5 -5 -5 -5 -5 -5 -5 -5 -5 -4 -4 -4 -4 -4 -4 -3 -3 -3 -3 -3 -3 -2 -2 -2 -2 -1 -1 -1
-6 -6 -6 -6 -6 -6 -6 -6 -6 -6 -6 -6 -6 -6 -6 -6 -6 -6 -6 -6 -6 -5 -5 -5 -5 -5 -5 -4 -4 -4 -4 -4 -4 -4 -4 -3 -3 -3 -3 -2 -2 -2 -2
-7 -7 -7 -7 -7 -7 -7 -7 -7 -7 -7 -7 -7 -6 -6 -6 -6 -6 -6 -6 -6 -6 -6 -5 -5 -5 -5 -5 -4 -4 -4 -4 -4 -4 -4 -4 -4 -3 -3 -3 -2 -2 -2
-7 -7 -7 -7 -7 -7 -7 -7 -7 -7 -7 -7 -7 -7 -7 -7 -7 -7 -7 -7 -7 -6 -6 -6 -6 -5 -5 -5 -5 -5 -5 -5 -5 -5 -5 -4 -4 -4 -4 -3 -3 -3 -3
-7 -7 -7 -7 -7 -8 -8 -8 -8 -8 -8 -8 -8 -8 -7 -7 -8 -8 -7 -7 -7 -7 -7 -6 -6 -6 -6 -6 -6 -5 -5 -5 -5 -5 -5 -5 -5 -4 -4 -4 -4 -4 -3
-8 -8 -8 -8 -8 -8 -8 -8 -8 -8 -8 -8 -8 -8 -8 -8 -8 -8 -8 -8 -7 -7 -7 -7 -7 -6 -6 -6 -6 -6 -6 -6 -6 -6 -6 -6 -5 -5 -5 -5 -4 -4 -4
-8 -8 -8 -8 -8 -8 -8 -8 -9 -8 -8 -9 -9 -9 -9 -9 -8 -8 -8 -8 -8 -8 -8 -7 -7 -7 -7 -6 -6 -6 -6 -7 -7 -7 -6 -6 -6 -6 -6 -6 -5 -5 -5
-9 -9 -9 -9 -9 -9 -9 -9 -9 -9 -9 -9 -9 -9 -9 -9 -9 -9 -8 -8 -8 -8 -8 -8 -8 -7 -7 -7 -7 -7 -7 -7 -7 -7 -7 -7 -7 -6 -6 -6 -6 -6 -6
-10 -10 -10 -10 -10 -10 -9 -9 -9 -10 -10 -10 -9 -9 -9 -9 -9 -9 -9 -9 -9 -9 -8 -8 -8 -8 -8 -8 -8 -8 -8 -8 -8 -8 -8 -7 -7 -7 -7 -7 -7 -7 -6
-10 -10 -10 -10 -10 -10 -10 -10 -10 -10 -10 -10 -10 -10 -10 -10 -9 -9 -9 -9 -9 -9 -9 -9 -9 -9 -9 -9 -9 -9 -9 -8 -8 -8 -8 -8 -8 -8 -8 -8 -8 -7 -7
-11 -11 -11 -11 -10 -10 -10 -10 -10 -10 -10 -10 -10 -10 -10 -10 -10 -10 -10 -9 -9 -9 -10 -10 -10 -10 -9 -9 -9 -9 -9 -9 -9 -9 -9 -9 -9 -9 -8 -8 -8 -8 -8
-11 -11 -11 -11 -11 -11 -11 -11 -11 -11 -11 -11 -11 -10 -10 -10 -10 -10 -10 -10 -10 -10 -10 -10 -10 -10 -10 -10 -10 -10 -10 -10 -10 -9 -9 -9 -9 -9 -9 -9 -9 -8 -8
-11 -11 -11 -11 -11 -11 -11 -11 -11 -11 -11 -11 -11 -11 -11 -11 -11 -11 -10 -11 -11 -11 -11 -11 -11 -11 -11 -10 -10 -10 -10 -10 -10 -10 -10 -10 -10 -9 -9 -9 -9 -9 -9
-12 -12 -12 -12 -12 -12 -12 -12 -12 -12 -12 -12 -12 -12 -12 -11 -11 -11 -11 -11 -11 -11 -11 -11 -11 -11 -11 -11 -11 -11 -10 -10 -10 -10 -10 -10 -10 -10 -10 -10 -10 -9 -9
-12 -12 -12 -12 -12 -12 -12 -12 -12 -12 -12 -12 -12 -12 -12 -12 -12 -12 -12 -12 -12 -12 -12 -12 -12 -12 -11 -11 -11 -11 -11 -11 -11 -11 -11 -11 -11 -10 -10 -10 -10 -10 -10
-13 -13 -13 -13 -13 -13 -13 -13 -13 -13 -13 -13 -13 -13 -12 -12 -12 -12 -12 -12 -12 -12 -12 -12 -12 -12 -12 -12 -12 -12 -11 -11 -11 -11 -11 -11 -11 -11 -11 -11 -10 -11 -10
-13 -13 -13 -13 -13 -13 -13 -13 -13 -13 -13 -13 -13 -13 -13 -13 -13 -13 -13 -13 -13 -13 -12 -12 -12 -12 -12 -12 -12 -12 -12 -12 -12 -12 -11 -11 -11 -11 -11 -11 -11 -11 -11
-13 -13 -13 -14 -14 -14 -14 -14 -14 -14 -14 -14 -14 -14 -13 -13 -13 -13 -13 -13 -13 -13 -13 -13 -13 -13 -12 -12 -12 -12 -12 -12 -12 -12 -12 -12 -12 -12 -12 -11 -11 -11 -11
-14 -14 -14 -14 -14 -14 -14 -14 -14 -14 -14 -14 -14 -14 -14 -14 -14 -14 -13 -13 -13 -13 -13 -13 -13 -13 -13 -13 -13 -12 -12 -12 -12 -12 -12 -12 -12 -12 -12 -12 -12 -12 -11
Wind_Speed
2 2 3 3 3 3 3 4 4 4 4 4 4 4 4 4 4 4 4 5 6 6 5 6 6 5 5 4 4 4 5 5 8 6 4 3 4 4 4 5 6 6 7
3 3 3 3 3 4 4 4 4 4 4 5 4 4 5 4 4 4 5 5 6 6 6 6 6 5 5 5 4 5 5 5 6 7 5 4 5 4 4 4 5 5 5
2 3 3 3 4 4 4 4 4 4 4 5 4 4 4 4 4 5 5 5 6 6 6 6 6 5 6 5 5 5 4 5 5 5 6 4 4 4 4 4 5 4 5
2 3 4 4 4 5 4 4 4 4 4 4 4 5 4 5 5 5 5 5 6 6 6 6 6 6 6 6 5 5 5 4 5 5 5 4 4 4 3 4 5 4 4
3 4 5 4 4 4 4 4 4 4 5 4 5 5 5 5 5 5 5 5 5 6 6 5 5 6 7 6 6 5 5 4 4 5 5 4 4 3 4 4 5 4 4
3 4 4 4 4 4 4 4 4 4 4 4 5 5 5 5 8 9 7 5 5 6 6 6 6 6 7 9 9 9 8 7 6 6 6 6 6 5 4 4 5 4 4
3 4 4 4 4 4 5 4 5 4 4 5 5 5 5 6 9 9 9 6 5 6 6 5 6 5 7 6 7 8 8 10 10 8 7 7 6 6 5 5 6 6 5
4 4 3 4 4 4 4 5 5 4 4 5 5 5 5 6 8 9 9 6 5 5 6 6 6 6 6 6 6 6 6 6 8 7 7 7 7 6 6 7 7 5 4
3 4 3 3 4 4 5 5 5 4 5 5 5 5 5 6 8 9 8 4 4 5 6 6 6 6 8 8 6 6 6 6 7 9 10 10 11 11 9 5 5 5 5
4 4 4 4 5 5 5 5 5 4 5 5 6 5 5 5 8 9 8 4 4 5 5 5 8 8 9 9 6 6 7 6 6 6 7 8 7 8 10 8 7 6 4
4 4 4 4 5 5 5 4 4 4 4 5 6 5 5 6 7 8 8 4 4 5 5 5 6 10 10 10 8 6 8 7 5 5 5 5 4 4 5 6 6 5 5
3 4 4 4 4 4 4 4 4 4 4 4 4 4 4 4 6 7 9 8 7 5 5 5 6 10 10 10 8 8 9 7 4 4 4 4 3 4 4 4 5 5 5
4 4 5 5 4 4 4 4 4 3 3 3 3 4 4 3 5 8 9 9 10 6 5 8 9 10 9 7 7 8 6 4 3 4 4 4 3 3 3 3 4 4 5
4 4 4 4 4 4 3 3 3 3 3 3 3 4 4 4 4 4 5 6 7 7 5 6 8 8 6 5 5 3 3 3 3 3 3 3 3 3 3 3 4 3 4
4 4 4 4 3 3 2 2 3 3 4 4 4 4 4 5 6 8 6 5 5 5 5 3 3 3 3 2 2 2 2 2 3 3 3 4 4 4 3 3 3 3 4
4 4 3 3 3 2 2 3 5 5 6 7 7 6 6 7 9 9 8 8 8 6 4 2 3 3 3 3 3 3 3 3 3 3 3 4 4 4 3 3 3 4 5
4 4 4 4 3 3 2 2 3 5 6 7 7 7 7 7 8 7 7 7 6 5 3 2 3 3 3 3 3 3 3 3 3 3 4 4 4 4 3 4 4 4 4
4 5 5 3 3 3 2 2 2 3 4 4 6 7 8 7 7 7 6 5 4 3 3 3 3 4 3 3 3 3 3 3 3 3 3 3 4 4 4 4 4 4 4
4 3 3 3 3 3 3 2 2 3 3 3 3 5 7 7 8 7 6 3 3 3 3 3 3 3 3 3 3 3 3 3 4 3 4 4 4 4 4 4 4 6 5
4 7 6 3 3 3 3 3 3 3 3 3 3 4 4 5 4 4 4 3 3 3 3 3 3 4 3 3 3 3 3 3 4 3 4 4 4 4 4 4 4 4 4
4 5 7 5 3 3 3 3 3 3 3 3 3 5 7 4 3 3 4 4 3 3 4 4 4 4 4 3 3 4 4 4 4 4 4 4 4 4 4 4 4 4 3
4 3 3 3 3 3 4 3 3 3 4 4 4 5 8 4 3 3 3 4 3 3 3 4 4 4 4 4 4 4 4 4 4 4 4 4 4 4 4 4 4 4 3
4 4 4 4 3 5 5 4 3 3 4 4 4 4 4 4 3 3 4 4 4 4 4 4 4 4 4 4 4 4 4 5 4 4 4 4 4 4 4 4 4 4 4
4 4 4 4 4 4 4 4 4 4 4 4 4 4 4 4 4 4 4 4 4 5 5 5 5 6 7 6 6 6 6 7 7 5 5 5 5 4 4 4 4 4 4
3 4 3 3 4 4 4 4 4 4 5 5 5 5 5 5 5 5 5 5 5 5 6 6 6 6 7 8 8 8 10 12 10 8 6 5 5 5 4 4 4 4 4
3 4 3 3 3 4 4 4 4 5 5 5 5 5 5 5 5 5 5 5 5 6 6 7 8 9 9 9 10 11 12 12 12 11 7 5 4 4 4 4 5 5 5
Wind_Direction
240 247 262 269 270 266 261 259 265 271 275 272 280 281 276 275 268 262 268 276 272 271 272 266 264 265 264 256 257 253 253 248 256 269 275 275 266 264 267 250 234 228 232
239 252 261 268 270 271 269 265 269 269 275 273 276 274 272 275 273 268 270 274 272 270 270 268 266 265 262 257 253 253 254 254 251 261 271 266 265 255 258 255 249 231 228
248 254 266 271 271 270 274 274 273 272 275 278 275 268 267 271 274 270 265 269 270 272 269 268 267 262 264 263 257 253 256 259 253 252 265 269 266 260 266 271 256 239 243
264 263 265 267 269 270 272 274 273 270 269 272 271 263 261 265 268 266 268 270 272 275 272 268 267 259 258 261 258 254 253 256 253 249 255 261 259 252 246 256 255 235 239
266 264 266 270 275 275 273 273 274 270 274 271 271 264 260 263 260 261 268 271 274 279 279 273 269 265 263 262 261 256 252 251 249 248 249 257 258 248 246 254 255 250 241
262 270 274 274 276 276 277 277 278 273 271 275 272 266 264 269 275 279 278 274 276 274 276 280 275 269 267 269 271 271 263 254 248 247 249 246 249 249 252 264 255 246 249
271 270 274 272 272 275 285 283 277 275 275 274 269 262 261 267 277 280 282 282 273 272 271 276 278 275 275 268 272 274 271 271 264 254 250 248 248 242 242 254 258 249 253
272 272 268 270 272 273 274 275 275 277 273 272 273 267 266 272 281 283 284 279 272 270 269 268 272 271 271 272 268 266 264 269 267 261 253 253 255 252 240 245 257 264 267
272 269 269 266 269 269 269 271 275 276 275 275 277 272 270 275 281 281 281 271 270 273 276 276 275 272 274 278 271 267 269 272 274 269 263 260 258 257 255 250 250 245 256
280 277 271 265 265 265 266 270 273 273 275 280 283 277 272 270 279 282 281 271 270 274 278 277 278 278 278 277 268 262 265 270 272 276 274 268 264 262 257 241 234 236 245
297 294 281 271 267 267 267 270 267 272 272 275 278 275 267 271 280 283 282 274 270 278 279 281 278 281 281 279 278 266 269 278 271 265 265 259 254 251 255 255 241 231 237
307 300 294 282 276 278 267 270 266 260 263 268 273 281 278 280 288 287 287 286 289 278 276 279 279 282 282 280 277 277 281 286 274 264 262 259 257 260 259 263 260 256 249
316 309 304 301 291 283 270 264 261 251 251 266 271 279 288 294 297 298 297 295 295 293 283 284 290 291 289 279 276 279 282 275 265 264 266 269 265 262 266 272 274 269 265
316 313 309 304 298 292 284 275 262 251 252 261 271 280 288 291 290 291 291 293 295 296 296 297 304 302 300 290 284 282 272 267 271 270 277 278 277 267 261 257 258 262 261
318 314 314 312 304 301 304 299 284 264 258 260 259 266 271 277 282 290 295 292 292 290 305 304 306 305 299 296 295 293 297 293 288 283 279 281 280 278 274 266 260 262 260
325 323 319 315 311 303 301 318 323 311 307 303 297 287 287 285 292 296 299 303 307 311 317 304 301 304 299 294 293 297 296 293 292 290 283 280 282 281 279 275 265 254 254
319 318 316 316 314 308 303 302 310 321 325 322 316 309 304 302 301 303 307 313 313 318 316 305 303 302 306 304 299 295 294 293 292 285 282 283 283 283 277 272 269 259 255
323 319 321 319 318 311 302 298 299 303 312 317 317 318 319 322 320 317 319 326 322 323 318 308 306 307 308 308 301 298 297 296 293 290 285 283 282 282 276 273 271 265 258
326 325 322 320 322 320 321 316 309 306 305 309 316 320 322 326 329 332 336 332 317 313 314 312 310 306 307 308 306 298 292 289 289 291 288 284 280 277 276 274 273 279 273
324 326 332 331 330 333 332 328 324 319 316 316 316 317 322 326 329 330 333 327 319 317 318 316 313 308 307 303 304 301 297 294 294 290 289 288 283 282 281 277 275 271 268
327 329 332 333 335 330 325 325 326 326 323 321 317 315 319 326 322 321 323 321 317 316 318 316 312 309 307 307 303 303 298 291 289 288 289 290 292 289 284 280 278 276 274
326 330 331 328 331 334 333 332 330 328 329 325 321 320 320 330 329 325 324 323 322 319 319 315 311 307 306 302 300 299 295 288 286 287 287 291 292 287 282 276 274 274 270
327 327 327 329 333 331 336 339 336 334 331 329 327 326 328 330 330 330 328 325 325 323 322 318 312 311 311 307 301 296 291 287 283 284 287 290 289 284 280 276 272 273 271
324 326 330 336 338 336 333 333 333 328 325 323 324 326 328 328 326 324 323 323 325 323 320 317 311 306 305 305 300 292 286 287 285 277 271 270 273 275 273 274 273 270 267
328 328 331 334 330 327 325 324 323 322 322 322 323 325 325 324 322 321 320 319 319 319 317 314 308 307 306 302 296 292 293 296 293 284 269 262 261 261 262 264 265 270 266
327 328 329 329 326 323 320 318 317 317 317 317 319 320 319 317 315 314 314 314 314 314 312 309 302 301 301 298 294 296 300 299 296 293 283 264 257 259 258 258 260 261 262
Height
1483 1483 1483 1483 1483 1483 1483 1483 1483 1483 1482 1482 1482 1481 1481 1481 1481 1481 1481 1481 1481 1481 1481 1481 1481 1482 1482 1483 1484 1485 1486 1486 1484 1482 1484 1485 1486 1486 1487 1488 1490 1490 1491
1478 1478 1479 1479 1479 1479 1479 1478 1478 1478 1478 1477 1477 1477 1476 1476 1476 1476 1476 1476 1476 1476 1475 1475 1475 1476 1476 1477 1478 1478 1479 1479 1479 1477 1477 1479 1480 1480 1481 1482 1483 1484 1485
1473 1474 1474 1474 1474 1474 1474 1474 1473 1473 1473 1473 1472 1472 1471 1471 1471 1471 1471 1470 1471 1470 1470 1469 1469 1470 1470 1470 1471 1472 1472 1473 1473 1473 1471 1472 1473 1475 1475 1476 1477 1477 1479
1469 1469 1469 1469 1469 1469 1469 1468 1468 1468 1468 1467 1467 1467 1466 1466 1466 1465 1465 1465 1465 1465 1464 1464 1464 1464 1464 1464 1465 1465 1466 1467 1467 1467 1466 1466 1467 1468 1470 1470 1470 1471 1472
1464 1464 1464 1464 1464 1464 1464 1463 1463 1463 1463 1462 1462 1462 1461 1461 1460 1460 1460 1460 1459 1459 1459 1459 1459 1459 1459 1459 1460 1460 1461 1461 1461 1461 1460 1460 1461 1462 1463 1463 1464 1464 1466
1460 1459 1459 1459 1459 1459 1458 1458 1458 1457 1457 1457 1457 1456 1456 1456 1456 1456 1455 1454 1454 1454 1453 1453 1453 1453 1453 1454 1454 1454 1455 1455 1454 1455 1454 1454 1454 1456 1457 1458 1458 1458 1458
1455 1454 1454 1454 1454 1454 1454 1453 1453 1452 1452 1452 1451 1451 1451 1451 1451 1451 1450 1450 1449 1449 1448 1448 1448 1448 1449 1448 1448 1448 1448 1449 1449 1450 1449 1448 1449 1450 1452 1452 1453 1452 1452
1450 1449 1449 1449 1449 1449 1448 1448 1448 1447 1447 1446 1446 1446 1446 1446 1446 1445 1445 1445 1444 1444 1444 1443 1443 1443 1443 1443 1442 1442 1442 1442 1443 1443 1443 1443 1444 1445 1446 1446 1446 1447 1447
1446 1445 1445 1445 1444 1444 1443 1443 1442 1442 1442 1441 1441 1441 1440 1440 1441 1440 1441 1440 1439 1439 1439 1439 1439 1438 1438 1438 1438 1437 1436 1436 1436 1437 1437 1437 1438 1439 1440 1441 1441 1441 1439
1442 1442 1441 1441 1440 1439 1438 1438 1438 1438 1437 1437 1436 1436 1436 1436 1436 1436 1437 1436 1435 1434 1434 1434 1434 1433 1433 1433 1432 1431 1430 1430 1430 1430 1430 1431 1431 1432 1433 1435 1435 1434 1433
1438 1438 1437 1436 1436 1435 1434 1434 1433 1433 1433 1432 1432 1432 1432 1432 1432 1432 1432 1432 1431 1430 1429 1429 1428 1428 1428 1427 1427 1427 1426 1425 1425 1424 1424 1424 1424 1425 1426 1427 1428 1428 1428
1434 1434 1433 1432 1431 1431 1430 1429 1429 1429 1428 1428 1428 1427 1428 1428 1428 1427 1428 1428 1427 1426 1425 1424 1423 1423 1422 1422 1421 1421 1421 1420 1420 1419 1419 1418 1418 1419 1419 1420 1420 1421 1422
1431 1430 1429 1428 1427 1426 1425 1425 1424 1424 1424 1424 1424 1424 1423 1423 1423 1424 1423 1423 1422 1422 1421 1420 1419 1418 1417 1416 1416 1416 1416 1415 1414 1414 1413 1412 1412 1413 1413 1413 1413 1414 1415
1427 1426 1425 1424 1423 1422 1421 1421 1421 1421 1421 1420 1420 1420 1419 1419 1419 1419 1419 1418 1417 1417 1416 1415 1414 1413 1412 1411 1411 1411 1411 1410 1410 1409 1408 1407 1407 1407 1406 1407 1407 1407 1408
1424 1423 1421 1420 1419 1419 1418 1418 1418 1418 1418 1418 1418 1417 1416 1415 1415 1416 1415 1414 1413 1412 1411 1410 1409 1408 1407 1407 1406 1406 1406 1405 1405 1404 1403 1402 1401 1401 1400 1401 1401 1402 1402
1421 1420 1419 1417 1416 1416 1415 1415 1415 1415 1415 1415 1415 1414 1413 1413 1412 1411 1411 1410 1409 1408 1408 1406 1405 1404 1404 1403 1402 1402 1401 1401 1400 1399 1398 1398 1397 1396 1396 1396 1396 1396 1396
1420 1418 1417 1415 1414 1413 1413 1412 1411 1411 1411 1411 1411 1410 1410 1409 1408 1408 1407 1406 1405 1405 1404 1402 1402 1401 1400 1399 1399 1398 1397 1397 1396 1395 1394 1393 1393 1392 1391 1391 1391 1391 1391
1419 1417 1415 1414 1412 1411 1411 1410 1409 1408 1407 1407 1407 1407 1406 1405 1404 1404 1403 1402 1401 1401 1400 1399 1398 1398 1397 1396 1395 1395 1394 1393 1392 1391 1390 1389 1389 1388 1387 1386 1386 1386 1386
1417 1415 1414 1412 1411 1410 1409 1408 1407 1407 1406 1404 1404 1403 1403 1402 1401 1400 1400 1399 1398 1397 1397 1396 1395 1394 1393 1392 1392 1391 1390 1389 1388 1387 1386 1385 1384 1384 1383 1382 1381 1381 1381
1416 1414 1413 1411 1410 1408 1407 1406 1405 1404 1403 1402 1401 1401 1400 1399 1398 1397 1397 1396 1395 1394 1394 1393 1392 1391 1390 1389 1388 1387 1386 1385 1384 1383 1382 1381 1380 1380 1379 1378 1377 1377 1376
1414 1413 1412 1410 1408 1407 1406 1405 1404 1402 1401 1400 1399 1399 1399 1397 1396 1395 1394 1393 1392 1391 1391 1390 1389 1387 1386 1384 1383 1382 1381 1380 1379 1378 1377 1377 1376 1375 1374 1374 1373 1373 1373
1414 1412 1410 1409 1407 1406 1405 1404 1402 1401 1400 1399 1397 1397 1396 1395 1394 1392 1391 1391 1390 1389 1388 1387 1385 1384 1382 1381 1380 1378 1377 1376 1375 1374 1373 1372 1371 1370 1370 1369 1369 1369 1369
1413 1411 1409 1408 1406 1405 1404 1402 1401 1399 1398 1397 1395 1394 1393 1392 1391 1390 1389 1388 1387 1385 1384 1383 1381 1380 1378 1377 1376 1375 1373 1372 1371 1370 1369 1368 1367 1366 1365 1365 1365 1365 1364
1411 1410 1408 1407 1405 1404 1402 1400 1399 1398 1396 1395 1393 1392 1391 1389 1388 1387 1386 1385 1383 1382 1381 1379 1378 1376 1375 1373 1372 1371 1369 1368 1367 1366 1365 1363 1362 1362 1361 1361 1361 1360 1360
1410 1409 1407 1405 1404 1402 1400 1399 1397 1396 1394 1392 1391 1389 1388 1387 1385 1384 1383 1382 1380 1379 1377 1376 1374 1372 1371 1369 1368 1366 1365 1364 1362 1361 1360 1359 1358 1358 1357 1357 1356 1356 1356
1409 1407 1405 1404 1402 1400 1399 1397 1395 1394 1392 1390 1389 1387 1385 1384 1383 1381 1380 1378 1377 1375 1373 1372 1370 1368 1367 1365 1363 1361 1360 1359 1358 1357 1356 1355 1354 1353 1353 1352 1352 1352 1352